Terminal Aerodrome Forecast
Issued by NWS

Home | Current Version | Previous Version | Text Only | Print | Product List | Glossary On
Versions: 1 2 3 4 5 6 7 8 9 10 11 12 13 14 15 16 17 18 19 20 21 22
751
FTUS43 KEAX 250402 AAB
TAFMKC
TAF AMD
KMKC 250402Z 2504/2524 12006KT P6SM SCT025 BKN040
      TEMPO 2504/2506 BKN025
     FM250600 16009KT P6SM -SHRA VCTS SCT060CB OVC090
      TEMPO 2507/2510 VRB25G45KT 3SM TSRA BKN025CB
     FM251400 15011KT P6SM VCSH BKN015
     FM251900 16011KT P6SM VCSH BKN035=

USA.gov is the U.S. government's official web portal to all federal, state and local government web resources and services.